Weather History for KYNG - August, 2012

Change the Weather History Date:

Tuesday, August 7, 2012

  Actual Average Record
Temperature  
Mean Temperature 70 °F 70 °F  
Max Temperature 84 °F 81 °F 95 °F (1931)
Min Temperature 55 °F 59 °F 41 °F (1997)
Degree Days  
Heating Degree Days 0 1  
Month to date heating degree days 0 2  
Since 1 June heating degree days 41 84  
Since 1 July heating degree days 0 15  
Cooling Degree Days 5 6  
Month to date cooling degree days 54 42  
Year to date cooling degree days 618 376  
Since 1 June cooling degree days 517 337  
Growing Degree Days 20 (Base 50)    
Moisture  
Dew Point 56 °F    
Average Humidity 67    
Maximum Humidity 93    
Minimum Humidity 40    
Precipitation  
Precipitation 0.00 in 0.10 in 1.20 in (2007)
Month to date precipitation 0.88 0.78  
Year to date precipitation 24.84 23.76  
Snow  
Snow 0.00 in 0.00 in - ()
Month to date snowfall 0.0 0.0  
Since 1 June snowfall T 0.0  
Since 1 July snowfall T 0.0  
Snow Depth 0.00 in    
Sea Level Pressure  
Sea Level Pressure 30.00 in    
Wind  
Wind Speed 5 mph (South)    
Max Wind Speed 13 mph    
Max Gust Speed 16 mph    
Visibility 10 miles    
Events      
T = Trace of Precipitation, MM = Missing Value Source: NWS Daily Summary

Daily Weather History Graph

Daily Weather History Graph

Search for Another Location

Airport or City:

Trip Planner

Search our weather history database for the weather conditions in past years. The results will help you decide how hot, cold, wet, or windy it might be!

Date:

Astronomy

Aug. 07, 2012 Rise Set
Actual Time 6:24 AM EDT 8:31 PM EDT
Civil Twilight 5:54 AM EDT 9:01 PM EDT
Nautical Twilight 5:16 AM EDT 9:39 PM EDT
Astronomical Twilight 4:35 AM EDT 10:19 PM EDT
Moon 11:06 PM EDT (8/7) 12:15 PM EDT (8/7)
Length of Visible Light 15h 07m
Length of Day
14h 07m
Waning Gibbous, 70% of the Moon is Illuminated
Aug 7
Waning Gibbous
Aug 9
Last Quarter
Aug 17
New
Aug 24
First Quarter
Aug 31
Full

Hourly Weather History & Observations

Time (EDT) Temp. Heat Index Dew Point Humidity Pressure Visibility Wind Dir Wind Speed Gust Speed Precip Events Conditions
12:51 AM 61.0 °F - 55.0 °F 81% 30.05 in 10.0 mi NE 3.5 mph - N/A   Clear
1:51 AM 57.9 °F - 54.0 °F 87% 30.04 in 10.0 mi East 4.6 mph - N/A   Clear
2:51 AM 55.9 °F - 54.0 °F 93% 30.03 in 10.0 mi ENE 4.6 mph - N/A   Clear
3:51 AM 55.9 °F - 53.1 °F 90% 30.02 in 10.0 mi ESE 4.6 mph - N/A   Clear
4:51 AM 55.9 °F - 54.0 °F 93% 30.01 in 10.0 mi ESE 4.6 mph - N/A   Clear
5:51 AM 55.0 °F - 53.1 °F 93% 30.02 in 10.0 mi SSE 4.6 mph - N/A   Partly Cloudy
6:51 AM 57.0 °F - 55.0 °F 93% 30.03 in 10.0 mi SE 3.5 mph - N/A   Partly Cloudy
7:51 AM 63.0 °F - 59.0 °F 87% 30.03 in 10.0 mi Calm Calm - N/A   Partly Cloudy
8:51 AM 69.1 °F - 59.0 °F 70% 30.03 in 10.0 mi SSW 3.5 mph - N/A   Scattered Clouds
9:51 AM 73.0 °F - 59.0 °F 61% 30.03 in 10.0 mi SSW 3.5 mph - N/A   Scattered Clouds
10:51 AM 75.9 °F - 57.9 °F 54% 30.03 in 10.0 mi Variable 4.6 mph - N/A   Scattered Clouds
11:51 AM 79.0 °F - 57.9 °F 48% 30.02 in 10.0 mi West 6.9 mph - N/A   Scattered Clouds
12:51 PM 81.0 °F 81.1 °F 57.9 °F 45% 30.01 in 10.0 mi Variable 6.9 mph - N/A   Scattered Clouds
1:51 PM 81.0 °F 81.0 °F 57.0 °F 44% 30.00 in 10.0 mi SW 10.4 mph - N/A   Scattered Clouds
2:51 PM 82.0 °F 81.7 °F 57.0 °F 42% 29.99 in 10.0 mi WSW 9.2 mph - N/A   Scattered Clouds
3:51 PM 84.0 °F 83.3 °F 57.0 °F 40% 29.97 in 10.0 mi WSW 12.7 mph - N/A   Scattered Clouds
4:51 PM 82.9 °F 82.1 °F 55.9 °F 39% 29.96 in 10.0 mi SSW 6.9 mph - N/A   Scattered Clouds
5:51 PM 82.9 °F 82.0 °F 55.0 °F 38% 29.96 in 10.0 mi West 9.2 mph - N/A   Scattered Clouds
6:51 PM 82.0 °F 81.6 °F 55.9 °F 41% 29.96 in 10.0 mi SW 4.6 mph - N/A   Scattered Clouds
7:51 PM 78.1 °F - 55.9 °F 46% 29.94 in 10.0 mi SSW 3.5 mph - N/A   Scattered Clouds
8:51 PM 69.1 °F - 57.0 °F 65% 29.96 in 10.0 mi Calm Calm - N/A   Partly Cloudy
9:51 PM 69.1 °F - 55.9 °F 63% 29.98 in 10.0 mi North 3.5 mph - N/A   Clear
10:51 PM 64.9 °F - 57.9 °F 78% 29.98 in 10.0 mi ENE 5.8 mph - N/A   Clear
11:51 PM 64.0 °F - 59.0 °F 84% 29.98 in 10.0 mi Calm Calm - N/A   Clear